sat.trackr.live / text

‹ back to catalog

GLOBALSTAR M073

NORAD 37193 · 2010-054F

PAYLOAD ACTIVE UNKNOWN

§ Identity

Operator
Country
GLOB
Launch date
2010-10-19
Launch site
TYMSC
Launch vehicle
Mass (kg)
RCS (m²)
4.69

Purposes: comms

External: N2YO · Heavens-Above · Gunter

§ Orbital elements

Epoch: 2026-09-20T00:04:39.199872Z

Period
114.08 min
Inclination
52.0046°
Eccentricity
0.0000557
Mean motion
12.62268110 rev/d
Perigee alt
1,413.2 km
Apogee alt
1,414.0 km
Semi-major
7,791.7 km
B*
-1.5549e-6
RAAN
135.6730°
Arg perigee
88.2783°
Mean anomaly
52.0337°
Rev number
73,590

§ Raw data

GLOBALSTAR M0731 37193U 10054F   26263.00323148 -.00000104  00000+0 -15549-5 0  99982 37193  52.0046 135.6730 0000557  88.2783  52.0337 12.62268110735903

JSON: /api/v1/satellites/37193 · /tle

For live sub-satellite position, see the globe view (requires WebGL).

§ Visibility from observer

Set your observer location to see the next 7 days of passes ≥ 10°. The values pass through the URL so the page stays shareable.

No JS? Fill the form by hand. The geolocation button needs JavaScript.